BX4AEF-8 Weather Reports


time (UTC)temp
C
wind
direction
speed
KPH
gust
KPH
rain 1hr
cm
rain 24hr
cm
rain mn
cm
humidity
%
barometer
mb
20260505031336 33 0.0 0.0 0.00 0.00 0.00 42 991.9
20260505025336 33 0.0 0.0 0.00 0.00 0.00 42 992.2
20260505023336 33 0.0 0.0 0.00 0.00 0.00 42 992.2
20260505021335 33 0.0 0.0 0.00 0.00 0.00 42 992.0
20260505015336 33 0.0 0.0 0.00 0.00 0.00 43 991.9
20260505013336 32 0.0 0.0 0.00 0.00 0.00 43 992.2
20260505011336 32 0.0 0.0 0.00 0.00 0.00 45 992.2
20260505005336 31 0.0 0.0 0.00 0.00 0.00 46 992.1
20260505003336 33 0.0 0.0 0.00 0.00 0.00 43 991.9
20260505001336 33 0.0 0.0 0.00 0.00 0.00 43 991.8
20260504235336 33 0.0 0.0 0.00 0.00 0.00 43 991.9
20260504233335 33 0.0 0.0 0.00 0.00 0.00 43 991.8
20260504231336 33 0.0 0.0 0.00 0.00 0.00 43 991.6
20260504225336 33 0.0 0.0 0.00 0.00 0.00 43 991.3
20260504223336 33 0.0 0.0 0.00 0.00 0.00 43 991.2
20260504221336 33 0.0 0.0 0.00 0.00 0.00 43 991.1
20260504215336 33 0.0 0.0 0.00 0.00 0.00 43 991.1
20260504213336 32 0.0 0.0 0.00 0.00 0.00 44 990.7
20260504211336 32 0.0 0.0 0.00 0.00 0.00 45 990.9
20260504205336 32 0.0 0.0 0.00 0.00 0.00 46 990.8
20260504203336 32 0.0 0.0 0.00 0.00 0.00 47 990.6
20260504201336 32 0.0 0.0 0.00 0.00 0.00 47 990.4
20260504195335 32 0.0 0.0 0.00 0.00 0.00 47 990.3
20260504193336 32 0.0 0.0 0.00 0.00 0.00 46 990.3
20260504191336 32 0.0 0.0 0.00 0.00 0.00 46 990.2
20260504185335 32 0.0 0.0 0.00 0.00 0.00 46 990.2
20260504183336 32 0.0 0.0 0.00 0.00 0.00 45 990.0
20260504181336 32 0.0 0.0 0.00 0.00 0.00 45 990.3
20260504175336 32 0.0 0.0 0.00 0.00 0.00 44 990.5
20260504173336 32 0.0 0.0 0.00 0.00 0.00 43 990.6
20260504171336 33 0.0 0.0 0.00 0.00 0.00 42 990.8
20260504081335 34 0.0 0.0 0.00 0.00 0.00 33 989.7
20260504045336 36 0.0 0.0 0.00 0.00 0.00 31 990.4
20260504043336 36 0.0 0.0 0.00 0.00 0.00 32 990.5
20260504041336 35 0.0 0.0 0.00 0.00 0.00 33 990.6
20260504035337 35 0.0 0.0 0.00 0.00 0.00 35 990.6
20260504033336 34 0.0 0.0 0.00 0.00 0.00 35 990.9